MST,Max TemperatureF,Mean TemperatureF,Min TemperatureF,Max Dew PointF,MeanDew PointF,Min DewpointF,Max Humidity, Mean Humidity, Min Humidity, Max Sea Level PressureIn, Mean Sea Level PressureIn, Min Sea Level PressureIn, Max VisibilityMiles, Mean VisibilityMiles, Min VisibilityMiles, Max Wind SpeedMPH, Mean Wind SpeedMPH, Max Gust SpeedMPH,PrecipitationIn, CloudCover, Events, WindDirDegrees
2013-9-1,103,92,82,70,66,61,67,42,26,29.85,29.79,29.70,10,9,2,12,5,,0.00,1,,299
2013-9-2,102,92,82,69,66,63,59,43,28,29.86,29.78,29.71,10,10,10,17,5,,0.00,1,,290
2013-9-3,106,94,81,66,62,55,58,37,20,29.85,29.78,29.68,10,10,10,15,7,,0.00,1,,343
2013-9-4,108,98,88,65,59,48,46,31,13,29.92,29.82,29.72,10,10,10,13,7,21,0.00,2,,108
2013-9-5,108,95,82,63,55,45,50,27,12,29.86,29.79,29.71,10,10,10,13,6,20,0.00,1,,6
2013-9-6,107,96,84,70,61,51,56,34,16,29.86,29.78,29.69,10,8,0,29,9,31,0.15,2,Rain-Thunderstorm,213
2013-9-7,93,86,80,69,65,60,68,51,34,29.91,29.85,29.77,10,10,10,8,5,,0.00,3,,330
2013-9-8,88,80,73,73,68,64,94,65,47,29.90,29.80,29.70,10,10,3,12,5,24,0.09,3,Rain,74
2013-9-9,80,76,72,75,72,66,100,85,65,29.82,29.77,29.70,10,10,5,15,6,,0.13,6,Rain-Thunderstorm,64
2013-9-10,82,76,71,71,67,64,96,70,56,29.86,29.80,29.74,10,10,10,24,6,29,0.00,4,,203
2013-9-11,91,80,70,70,64,57,99,58,34,29.97,29.90,29.85,10,10,10,9,4,,0.00,0,,325
2013-9-12,98,84,71,63,56,48,69,41,18,29.90,29.81,29.72,10,10,10,24,7,70,0.00,0,,327
2013-9-13,100,88,75,63,58,54,53,36,22,29.77,29.69,29.60,10,10,10,9,6,,0.00,0,,339
2013-9-14,100,89,78,63,59,54,54,36,22,29.71,29.65,29.60,10,10,10,14,6,,0.00,0,Thunderstorm,1
2013-9-15,102,90,77,59,57,54,51,34,20,29.78,29.72,29.68,10,10,10,9,5,,0.00,0,,7
2013-9-16,104,91,78,61,58,55,48,33,21,29.82,29.75,29.68,10,10,10,10,6,,0.00,1,,14
2013-9-17,104,93,82,62,59,50,48,32,21,29.77,29.68,29.55,10,10,10,15,7,,0.00,0,,352
2013-9-18,102,89,76,56,41,23,44,20,6,29.69,29.63,29.57,10,10,10,17,7,24,0.00,0,,221
2013-9-19,98,84,69,47,39,28,41,23,9,29.77,29.69,29.63,10,10,10,9,4,,0.00,0,,312
2013-9-20,103,86,69,52,44,34,31,23,12,29.81,29.71,29.65,10,9,1,13,6,,0.00,0,,289
2013-9-21,99,87,75,57,53,49,45,30,18,29.78,29.69,29.59,10,10,10,10,6,,0.00,0,,224
2013-9-22,88,80,69,59,39,14,44,24,6,29.73,29.65,29.59,10,10,10,18,9,26,0.00,0,,240
2013-9-23,91,76,61,40,33,26,36,21,9,29.89,29.82,29.72,10,10,10,10,5,,0.00,0,,11
2013-9-24,96,80,63,44,38,33,40,24,11,29.94,29.84,29.73,10,9,2,8,3,,0.00,0,,337
2013-9-25,93,80,67,50,43,34,44,28,12,29.75,29.66,29.56,10,10,10,16,6,20,0.00,0,,225
2013-9-26,91,78,66,54,41,28,47,27,13,29.74,29.63,29.56,10,10,10,21,8,24,0.00,1,,230
2013-9-27,85,74,64,34,27,15,32,19,7,29.89,29.81,29.71,10,10,10,12,5,,0.00,1,,258
2013-9-28,89,73,57,33,27,20,37,19,8,30.02,29.96,29.91,10,10,10,8,5,,0.00,0,,355
2013-9-29,93,78,62,39,34,29,30,20,11,30.04,29.95,29.88,10,8,3,10,6,,0.00,0,,326
2013-9-30,93,77,61,41,37,30,39,24,11,29.97,29.88,29.78,10,7,3,13,5,,0.05,0,,46